Simultaneous Nadir Overpasses (SNOs) Predictions

Prediction of SNOs between GOES-17 and METOP-B Satellite Orbit:

Table of predicted SNOs for the next 14.0 days since TLE Epoch: 12/14/2024
Index Date Time (GOES-17) GOES-17 Lat,Lon METOP-B Lat,Lon Distance(km) Time Diff (sec)
1 12/14/2024 16:20:12 -0.01,-104.71 0.41,-106.51 205.87 80
2 12/15/2024 16:02:19 -0.00,-104.71 -0.72,-101.56 359.70 80
3 12/17/2024 04:21:29 -0.01,-104.66 -0.38,-106.20 175.63 80
4 12/18/2024 03:58:15 -0.03,-104.66 0.70,-101.23 389.69 80
5 12/19/2024 16:17:17 0.03,-104.71 0.26,-105.86 130.69 80
6 12/20/2024 15:59:24 0.04,-104.72 -0.83,-100.90 435.40 80
7 12/22/2024 04:18:33 -0.04,-104.68 -0.25,-105.54 98.70 80
8 12/23/2024 03:55:20 -0.04,-104.68 0.84,-100.58 466.95 80
9 12/24/2024 16:14:21 0.04,-104.73 0.15,-105.20 53.48 80
10 12/27/2024 04:15:37 -0.04,-104.71 -0.11,-104.88 21.19 80
